Regional Weather Roundup
Issued by NWS

Home | Current Version | Previous Version | Graphics & Text | Print | Product List | Glossary On
Versions: 1 2 3 4 5 6 7 8 9 10 11 12 13 14 15 16 17 18 19 20 21 22 23 24 25 26 27 28 29 30 31 32 33 34 35 36 37 38 39 40 41 42 43 44 45 46 47 48 49 50
331
ASUS43 KOAX 220710
RWRNE

WEATHER ROUNDUP FOR NEBRASKA
NATIONAL WEATHER SERVICE OMAHA NE
200 AM CDT TUE MAY 22 2018

NOTES: SATELLITE DATA IS BEING USED TO AUGMENT CLOUD COVER ABOVE
       12000 FEET.
       "FAIR" INDICATES FEW OR NO CLOUDS BELOW 12,000 FEET WITH NO
       SIGNIFICANT WEATHER AND/OR OBSTRUCTIONS TO VISIBILITY.


NEZ001>004-019>022-054>056-220800-
NEBRASKA PANHANDLE

CITY           SKY/WX    TMP DP  RH WIND       PRES   REMARKS
SCOTTSBLUFF    MOCLDY    56  55  97 NE8       29.95S
ALLIANCE       PTCLDY    52  52 100 NE7       29.94F
CHADRON        PTCLDY    54  53  97 SE7       29.94F
GORDON         FAIR      50  48  92 CALM      29.96R
KIMBALL        MOCLDY    53  52  95 N6        29.98S
SIDNEY         MOCLDY    56  53  90 NE8       29.95S
$$

NEZ057>060-069>072-079>082-220800-
SOUTHWEST NEBRASKA

CITY           SKY/WX    TMP DP  RH WIND       PRES   REMARKS
NORTH PLATTE   CLOUDY    61  59  93 SE9       29.91F
IMPERIAL       MOCLDY    58  56  93 SE6       29.88F
LEXINGTON      MOCLDY    63  59  86 SE9       29.92F
MCCOOK         PTCLDY    66  59  78 S6        29.88F
OGALLALA       CLOUDY    63  59  88 NE6       29.91S
$$

NEZ005>010-023>029-035>040-094-220800-
NORTH CENTRAL NEBRASKA

CITY           SKY/WX    TMP DP  RH WIND       PRES   REMARKS
VALENTINE      PTCLDY    63  58  83 SE9       29.94S
AINSWORTH      MOCLDY    61  57  88 SE9       29.95F
BROKEN BOW     CLOUDY    63  58  83 SE13      29.94F
O`NEILL        CLOUDY    65  59  82 SE6       29.97S
ORD            CLOUDY    61  58  90 SE6       29.94F
THEDFORD       PTCLDY    60  58  94 SE6       29.94F
$$

NEZ041-046>049-061>064-073>077-083>087-220800-
SOUTH CENTRAL NEBRASKA

CITY           SKY/WX    TMP DP  RH WIND       PRES   REMARKS
GRAND ISLAND   CLOUDY    65  57  75 SE12      29.97F
AURORA         CLOUDY    62  59  88 SE7       29.97F
HASTINGS       CLOUDY    65  56  72 SE9       29.97S
HEBRON         CLOUDY    64  58  79 SE7       29.97S
HOLDREGE       CLOUDY    62  59  88 SE13      29.94S
KEARNEY        CLOUDY    63  57  81 SE12      29.95F
YORK           CLOUDY    66  63  88 S10       29.98S
$$

NEZ011>018-030>034-042>045-220800-
NORTHEAST NEBRASKA

CITY           SKY/WX    TMP DP  RH WIND       PRES   REMARKS
NORFOLK        CLOUDY    63  57  81 S8        29.97S
ALBION         MOCLDY    62  58  86 SE5       29.97F
BLAIR          CLOUDY    62  57  84 E5        29.99S
COLUMBUS       CLOUDY    63  58  83 E6        29.97F
FREMONT        CLOUDY    65  58  77 SE7       29.99S
TEKAMAH        CLOUDY    60  58  92 S6        29.98S
WAYNE          CLOUDY    60  59  96 CALM      29.98S
$$

NEZ050>053-065>068-078-088>093-220800-
SOUTHEAST NEBRASKA

CITY           SKY/WX    TMP DP  RH WIND       PRES   REMARKS
LINCOLN        CLOUDY    66  56  70 S3        29.98S
OMAHA EPPLEY   CLOUDY    63  56  78 S6        29.99S
BEATRICE       CLOUDY    66  59  76 SE3       29.99S
FALLS CITY     CLEAR     63  58  83 S6        29.99F
NEBRASKA CITY  CLOUDY    61  59  94 S6        29.99S
PLATTSMOUTH    CLOUDY    63  56  77 SE7       29.99S
$$

NEZ044-045-051>053-067-220800-
OMAHA AREA

CITY           SKY/WX    TMP DP  RH WIND       PRES   REMARKS
OMAHA EPPLEY   CLOUDY    63  56  78 S6        29.99S
BLAIR          CLOUDY    62  57  84 E5        29.99S
FREMONT        CLOUDY    65  58  77 SE7       29.99S
MILLARD        CLOUDY    63  57  81 CALM      29.99S
OFFUTT AFB     CLOUDY    58  56  94 CALM      29.98S
PLATTSMOUTH    CLOUDY    63  56  77 SE7       29.99S
WAHOO          FAIR      61  55  81 E5        29.98S
$$




USA.gov is the U.S. government's official web portal to all federal, state and local government web resources and services.